Location: Fayetteville
(35.0530°N, 78.8790°W)
Time: 08:24:05
(UTC-04:00)

Hubble Space Telescope - Pass Details

Date: 25 June 2019
Orbit: 536 x 540 km, 28.5° (Epoch: 19 July)

Event Time Altitude Azimuth Distance (km) Brightness Sun altitude
Rises 22:00:00 0° 235° (SW) 2,673 4.5 -15.0°
Reaches altitude 10° 22:02:35 10° 220° (SW) 1,783 3.4 -15.4°
Enters shadow 22:05:33 23° 175° (S) 1,160 2.0 -15.9°
